Location: ??????
(41.3794°N, 22.5014°E)
Time: 21:38:09
(UTC+00:00)

Radarsat Rocket - Pass Details

Date: 30 November 2020
Orbit: 933 x 1491 km, 100.6° (Epoch: 19 January)

Event Time Altitude Azimuth Distance (km) Brightness Sun altitude
Rises 15:41:35 0° 162° (SSE) 3,618 7.1 -7.6°
Reaches altitude 10° 15:43:54 10° 163° (SSE) 2,710 6.4 -8.0°
Maximum altitude 15:49:57 88° 253° (WSW) 1,044 4.2 -9.1°
Drops below altitude 10° 15:56:45 10° 344° (NNW) 3,030 6.5 -10.3°
Sets 15:59:29 0° 344° (NNW) 4,074 7.2 -10.7°
